Location: Campillo
(40.8621°N, 4.2488°W)
Time: 12:38:17
(UTC+00:00)

Cosmos 1933 Rocket - Pass Details

Date: 11 May 2021
Orbit: 606 x 630 km, 82.5° (Epoch: 13 June)

Event Time Altitude Azimuth Distance (km) Brightness Sun altitude
Rises 21:01:16 0° 2° (N) 2,873 7.6 -16.1°
Reaches altitude 10° 21:03:43 10° 13° (NNE) 1,964 6.5 -16.4°
Maximum altitude 21:07:34 30° 76° (ENE) 1,087 4.5 -17.0°
Enters shadow 21:08:27 28° 99° (E) 1,151 4.5 -17.1°
